Torna al catalogo

KUIPER-00513

AttivoComunicazioniLEO
NORAD 69598·PAYLOAD·🇺🇸 United States

Lanciato Jun 17, 2026 da Guiana Space Centre

Loading…

Prossimi Passaggi (prossime 24 ore)

TLE

AggiornatoSource: CelesTrak SupGP

Epoca: Sep 14, 2026, 22:26 UTC

1 69598C 26140G   26257.93478009 -.00005703  00000+0 -74660-3 0  2571
2 69598  51.9005 338.8054 0000444 106.4773 280.9418 14.79934710    18

Traccia KUIPER-00513 in tempo reale con AllMySat

Download on the App Store